Powrót do katalogu

STARLINK-5658

AktywnyŁącznośćVLEO
NORAD 55338·PAYLOAD·🇺🇸 United States

Wystrzelony Jan 26, 2023 z Cape Canaveral Space Force Station

Loading…

Następne Przeloty (najbliższe 24 godziny)

TLE

ŚwieżeSource: CelesTrak SupGP

Epoka: Sep 14, 2026, 20:47 UTC

1 55338C 23013H   26257.86645833 -.00053253  00000+0 -19289-2 0  2575
2 55338  43.0029 315.3282 0001632 281.8067  26.7399 15.27603996    17

Śledź STARLINK-5658 w czasie rzeczywistym z AllMySat

Download on the App Store